Wetterdaten: Woche 29.01.18 - 04.02.18 (KW5)
Datum Zeit Temperatur Luftfeuchte Luftdruck Niederschlag Windrichtung Sonnenschein Solar Wind
29.01.2018 00:00 2,9 C 93 % 1034,4 hPa 0,0 l/m SW 0,00 h 0 W/m 2,9 km/h (1 Bft)
29.01.2018 01:00 3,2 C 95 % 1033,9 hPa 0,0 l/m SW 0,00 h 0 W/m 6,0 km/h (2 Bft)
29.01.2018 02:00 3,1 C 95 % 1033,9 hPa 0,0 l/m S 0,00 h 0 W/m 0,7 km/h (0 Bft)
29.01.2018 03:00 2,3 C 94 % 1033,7 hPa 0,0 l/m N 0,00 h 0 W/m 0,0 km/h (0 Bft)
29.01.2018 04:00 1,7 C 95 % 1033,5 hPa 0,0 l/m N 0,00 h 0 W/m 0,0 km/h (0 Bft)
29.01.2018 05:00 1,7 C 96 % 1033,3 hPa 0,0 l/m S 0,00 h 0 W/m 3,2 km/h (1 Bft)
29.01.2018 06:00 2,8 C 97 % 1033,4 hPa 0,0 l/m S 0,00 h 0 W/m 4,8 km/h (1 Bft)
29.01.2018 07:00 3,6 C 97 % 1033,6 hPa 0,0 l/m S 0,00 h 0 W/m 5,3 km/h (1 Bft)
29.01.2018 08:00 4,1 C 98 % 1033,4 hPa 0,0 l/m S 0,00 h 13 W/m 5,9 km/h (2 Bft)
29.01.2018 09:00 4,7 C 98 % 1032,8 hPa 0,0 l/m S-SW 0,00 h 42 W/m 11,3 km/h (2 Bft)
29.01.2018 10:00 5,1 C 98 % 1032,4 hPa 0,0 l/m SW 0,00 h 60 W/m 14,8 km/h (3 Bft)
29.01.2018 11:00 5,4 C 98 % 1032,1 hPa 0,0 l/m SW 0,00 h 101 W/m 12,2 km/h (2 Bft)
29.01.2018 12:00 6,2 C 96 % 1030,9 hPa 0,0 l/m W-SW 0,17 h 180 W/m 18,9 km/h (3 Bft)
29.01.2018 13:00 7,3 C 92 % 1029,6 hPa 0,0 l/m W-SW 0,42 h 233 W/m 19,4 km/h (3 Bft)
29.01.2018 14:00 8,3 C 87 % 1028,6 hPa 0,0 l/m W 1,00 h 319 W/m 14,8 km/h (3 Bft)
29.01.2018 15:00 8,3 C 86 % 1027,9 hPa 0,0 l/m W-SW 1,00 h 182 W/m 18,4 km/h (3 Bft)
29.01.2018 16:00 8,2 C 87 % 1027,3 hPa 0,0 l/m W-SW 0,25 h 51 W/m 11,5 km/h (2 Bft)
29.01.2018 17:00 7,4 C 88 % 1027,4 hPa 0,0 l/m W-SW 0,17 h 10 W/m 12,0 km/h (2 Bft)
29.01.2018 18:00 6,5 C 91 % 1028,0 hPa 0,0 l/m W 0,00 h 0 W/m 13,3 km/h (3 Bft)
29.01.2018 19:00 6,4 C 92 % 1028,7 hPa 0,0 l/m W-SW 0,00 h 0 W/m 14,4 km/h (3 Bft)
29.01.2018 20:00 6,3 C 93 % 1029,0 hPa 0,0 l/m SW 0,00 h 0 W/m 13,6 km/h (3 Bft)
29.01.2018 21:00 6,0 C 92 % 1029,3 hPa 0,0 l/m W-SW 0,00 h 0 W/m 14,6 km/h (3 Bft)
29.01.2018 22:00 5,6 C 92 % 1029,7 hPa 0,0 l/m W-SW 0,00 h 0 W/m 16,1 km/h (3 Bft)
29.01.2018 23:00 5,4 C 92 % 1029,9 hPa 0,0 l/m SW 0,00 h 0 W/m 17,8 km/h (3 Bft)
30.01.2018 00:00 5,6 C 91 % 1029,8 hPa 0,0 l/m SW 0,00 h 0 W/m 18,4 km/h (3 Bft)
30.01.2018 01:00 5,5 C 91 % 1029,5 hPa 0,0 l/m SW 0,00 h 0 W/m 17,3 km/h (3 Bft)
30.01.2018 02:00 5,5 C 92 % 1029,6 hPa 0,0 l/m W-SW 0,00 h 0 W/m 18,8 km/h (3 Bft)
30.01.2018 03:00 5,6 C 92 % 1029,4 hPa 0,0 l/m SW 0,00 h 0 W/m 15,3 km/h (3 Bft)
30.01.2018 04:00 5,4 C 92 % 1029,3 hPa 0,0 l/m SW 0,00 h 0 W/m 11,0 km/h (2 Bft)
30.01.2018 05:00 5,2 C 93 % 1029,5 hPa 0,0 l/m SW 0,00 h 0 W/m 8,7 km/h (2 Bft)
30.01.2018 06:00 5,2 C 94 % 1029,8 hPa 0,0 l/m W-SW 0,00 h 0 W/m 10,2 km/h (2 Bft)
30.01.2018 07:00 5,3 C 94 % 1029,8 hPa 0,0 l/m W-SW 0,00 h 0 W/m 14,4 km/h (3 Bft)
30.01.2018 08:00 5,3 C 94 % 1029,8 hPa 0,0 l/m W-SW 0,00 h 21 W/m 12,9 km/h (3 Bft)
30.01.2018 09:00 5,6 C 94 % 1029,7 hPa 0,0 l/m SW 0,00 h 97 W/m 10,9 km/h (2 Bft)
30.01.2018 10:00 6,3 C 93 % 1029,7 hPa 0,0 l/m W-SW 0,08 h 147 W/m 10,1 km/h (2 Bft)
30.01.2018 11:00 7,3 C 89 % 1029,6 hPa 0,0 l/m W 0,25 h 203 W/m 9,8 km/h (2 Bft)
30.01.2018 12:00 8,0 C 83 % 1028,9 hPa 0,0 l/m W-NW 0,25 h 197 W/m 8,2 km/h (2 Bft)
30.01.2018 13:00 7,9 C 85 % 1028,0 hPa 0,0 l/m W-NW 0,00 h 131 W/m 4,8 km/h (1 Bft)
30.01.2018 14:00 8,2 C 84 % 1027,1 hPa 0,0 l/m W 0,00 h 105 W/m 5,5 km/h (1 Bft)
30.01.2018 15:00 8,0 C 80 % 1026,6 hPa 0,0 l/m W 0,00 h 67 W/m 4,4 km/h (1 Bft)
30.01.2018 16:00 7,7 C 80 % 1026,0 hPa 0,0 l/m N 0,00 h 29 W/m 0,0 km/h (0 Bft)
30.01.2018 17:00 7,5 C 79 % 1025,7 hPa 0,0 l/m N 0,00 h 6 W/m 1,2 km/h (1 Bft)
30.01.2018 18:00 6,7 C 83 % 1025,4 hPa 0,0 l/m N 0,00 h 0 W/m 0,3 km/h (0 Bft)
30.01.2018 19:00 5,6 C 86 % 1025,3 hPa 0,0 l/m N 0,00 h 0 W/m 0,4 km/h (0 Bft)
30.01.2018 20:00 4,6 C 87 % 1025,3 hPa 0,0 l/m N 0,00 h 0 W/m 0,0 km/h (0 Bft)
30.01.2018 21:00 4,2 C 90 % 1025,1 hPa 0,0 l/m W 0,00 h 0 W/m 0,4 km/h (0 Bft)
30.01.2018 22:00 4,3 C 93 % 1024,7 hPa 0,0 l/m N 0,00 h 0 W/m 0,5 km/h (0 Bft)
30.01.2018 23:00 4,3 C 93 % 1024,1 hPa 0,0 l/m N 0,00 h 0 W/m 0,0 km/h (0 Bft)
31.01.2018 00:00 4,3 C 94 % 1023,5 hPa 0,0 l/m W 0,00 h 0 W/m 1,7 km/h (1 Bft)
31.01.2018 01:00 4,3 C 95 % 1022,8 hPa 0,0 l/m W 0,00 h 0 W/m 5,5 km/h (1 Bft)
31.01.2018 02:00 4,3 C 94 % 1022,4 hPa 0,0 l/m W 0,00 h 0 W/m 3,6 km/h (1 Bft)
31.01.2018 03:00 4,5 C 92 % 1021,7 hPa 0,0 l/m W 0,00 h 0 W/m 5,5 km/h (1 Bft)
31.01.2018 04:00 4,1 C 93 % 1020,9 hPa 0,0 l/m W 0,00 h 0 W/m 3,7 km/h (1 Bft)
31.01.2018 05:00 3,4 C 94 % 1020,4 hPa 0,0 l/m W-SW 0,00 h 0 W/m 11,1 km/h (2 Bft)
31.01.2018 06:00 3,8 C 95 % 1020,0 hPa 0,0 l/m SW 0,00 h 0 W/m 15,0 km/h (3 Bft)
31.01.2018 07:00 3,4 C 95 % 1019,5 hPa 0,0 l/m W-SW 0,00 h 7 W/m 11,3 km/h (2 Bft)
31.01.2018 08:00 3,2 C 95 % 1018,8 hPa 0,0 l/m SW 0,08 h 34 W/m 6,4 km/h (2 Bft)
31.01.2018 09:00 4,2 C 95 % 1017,9 hPa 0,0 l/m SW 0,67 h 144 W/m 10,3 km/h (2 Bft)
31.01.2018 10:00 6,5 C 86 % 1017,0 hPa 0,0 l/m SW 0,92 h 345 W/m 20,9 km/h (4 Bft)
31.01.2018 11:00 7,5 C 79 % 1015,8 hPa 0,0 l/m W-SW 0,75 h 345 W/m 21,0 km/h (4 Bft)
31.01.2018 12:00 8,4 C 75 % 1014,1 hPa 0,0 l/m SW 0,75 h 341 W/m 21,3 km/h (4 Bft)
31.01.2018 13:00 7,9 C 76 % 1012,8 hPa 0,0 l/m W-SW 0,25 h 261 W/m 20,8 km/h (4 Bft)
31.01.2018 14:00 7,4 C 79 % 1011,6 hPa 0,0 l/m W-SW 0,00 h 142 W/m 28,1 km/h (4 Bft)
31.01.2018 15:00 7,4 C 79 % 1010,6 hPa 0,0 l/m W-SW 0,00 h 66 W/m 23,6 km/h (4 Bft)
31.01.2018 16:00 6,9 C 81 % 1009,3 hPa 0,0 l/m W-SW 0,00 h 25 W/m 21,7 km/h (4 Bft)
31.01.2018 17:00 6,6 C 82 % 1008,0 hPa 0,0 l/m W-SW 0,00 h 6 W/m 19,7 km/h (3 Bft)
31.01.2018 18:00 6,7 C 78 % 1007,0 hPa 0,0 l/m SW 0,00 h 0 W/m 23,3 km/h (4 Bft)
31.01.2018 19:00 6,4 C 79 % 1006,0 hPa 0,0 l/m SW 0,00 h 0 W/m 16,6 km/h (3 Bft)
31.01.2018 20:00 6,5 C 79 % 1005,5 hPa 0,0 l/m W 0,00 h 0 W/m 14,1 km/h (3 Bft)
31.01.2018 21:00 6,3 C 80 % 1005,1 hPa 0,0 l/m W-SW 0,00 h 0 W/m 14,8 km/h (3 Bft)
31.01.2018 22:00 6,4 C 79 % 1004,8 hPa 0,0 l/m W-SW 0,00 h 0 W/m 13,8 km/h (3 Bft)
31.01.2018 23:00 6,1 C 83 % 1004,4 hPa 0,4 l/m W-SW 0,00 h 0 W/m 24,5 km/h (4 Bft)
01.02.2018 00:00 5,7 C 90 % 1003,8 hPa 0,4 l/m W-SW 0,00 h 0 W/m 22,6 km/h (4 Bft)
01.02.2018 01:00 5,4 C 92 % 1003,1 hPa 1,6 l/m W-SW 0,00 h 0 W/m 21,0 km/h (4 Bft)
01.02.2018 02:00 5,2 C 94 % 1002,6 hPa 1,4 l/m W-SW 0,00 h 0 W/m 20,1 km/h (4 Bft)
01.02.2018 03:00 4,9 C 95 % 1002,2 hPa 1,2 l/m W-SW 0,00 h 0 W/m 18,5 km/h (3 Bft)
01.02.2018 04:00 4,5 C 95 % 1001,8 hPa 1,6 l/m W 0,00 h 0 W/m 12,5 km/h (3 Bft)
01.02.2018 05:00 4,0 C 95 % 1001,7 hPa 2,4 l/m W-NW 0,00 h 0 W/m 15,3 km/h (3 Bft)
01.02.2018 06:00 2,8 C 95 % 1001,7 hPa 1,0 l/m W-SW 0,00 h 0 W/m 10,7 km/h (2 Bft)
01.02.2018 07:00 2,7 C 95 % 1001,6 hPa 0,6 l/m W-SW 0,00 h 0 W/m 13,0 km/h (3 Bft)
01.02.2018 08:00 2,3 C 96 % 1002,0 hPa 0,6 l/m W-SW 0,00 h 16 W/m 17,3 km/h (3 Bft)
01.02.2018 09:00 2,2 C 96 % 1002,4 hPa 0,0 l/m W-SW 0,00 h 39 W/m 14,9 km/h (3 Bft)
01.02.2018 10:00 2,2 C 96 % 1003,1 hPa 0,4 l/m W-SW 0,00 h 58 W/m 13,0 km/h (3 Bft)
01.02.2018 11:00 1,9 C 96 % 1003,6 hPa 0,2 l/m W-NW 0,00 h 55 W/m 7,5 km/h (2 Bft)
01.02.2018 12:00 2,2 C 96 % 1003,2 hPa 0,2 l/m W-SW 0,00 h 120 W/m 12,8 km/h (3 Bft)
01.02.2018 13:00 2,4 C 93 % 1002,8 hPa 0,0 l/m W-SW 0,00 h 109 W/m 18,1 km/h (3 Bft)
01.02.2018 14:00 2,3 C 90 % 1002,8 hPa 0,0 l/m W-SW 0,00 h 85 W/m 14,4 km/h (3 Bft)
01.02.2018 15:00 1,9 C 86 % 1003,1 hPa 0,0 l/m W 0,00 h 58 W/m 16,6 km/h (3 Bft)
01.02.2018 16:00 1,8 C 84 % 1003,6 hPa 0,0 l/m W-SW 0,00 h 27 W/m 17,8 km/h (3 Bft)
01.02.2018 17:00 1,6 C 84 % 1003,9 hPa 0,0 l/m W 0,00 h 7 W/m 15,6 km/h (3 Bft)
01.02.2018 18:00 1,3 C 83 % 1004,2 hPa 0,0 l/m W 0,00 h 0 W/m 13,6 km/h (3 Bft)
01.02.2018 19:00 1,4 C 83 % 1004,6 hPa 0,0 l/m W-SW 0,00 h 0 W/m 10,7 km/h (2 Bft)
01.02.2018 20:00 1,3 C 89 % 1005,0 hPa 0,0 l/m W-SW 0,00 h 0 W/m 9,0 km/h (2 Bft)
01.02.2018 21:00 1,2 C 93 % 1005,0 hPa 0,0 l/m W-SW 0,00 h 0 W/m 9,9 km/h (2 Bft)
01.02.2018 22:00 1,1 C 91 % 1005,1 hPa 0,0 l/m SW 0,00 h 0 W/m 12,2 km/h (2 Bft)
01.02.2018 23:00 0,4 C 91 % 1005,3 hPa 0,0 l/m N 0,00 h 0 W/m 0,0 km/h (0 Bft)
02.02.2018 00:00 0,3 C 92 % 1005,5 hPa 0,0 l/m W-SW 0,00 h 0 W/m 10,3 km/h (2 Bft)
02.02.2018 01:00 0,8 C 91 % 1005,5 hPa 0,0 l/m W-SW 0,00 h 0 W/m 11,8 km/h (2 Bft)
02.02.2018 02:00 0,7 C 90 % 1005,6 hPa 0,0 l/m W-SW 0,00 h 0 W/m 7,6 km/h (2 Bft)
02.02.2018 03:00 0,3 C 91 % 1006,0 hPa 0,0 l/m W-SW 0,00 h 0 W/m 8,9 km/h (2 Bft)
02.02.2018 04:00 -0,1 C 91 % 1006,4 hPa 0,0 l/m W 0,00 h 0 W/m 7,2 km/h (2 Bft)
02.02.2018 05:00 -0,5 C 90 % 1006,5 hPa 0,0 l/m W-SW 0,00 h 0 W/m 8,1 km/h (2 Bft)
02.02.2018 06:00 -0,7 C 88 % 1006,6 hPa 0,0 l/m W-SW 0,00 h 0 W/m 5,1 km/h (1 Bft)
02.02.2018 07:00 -1,3 C 91 % 1006,7 hPa 0,0 l/m W-SW 0,00 h 6 W/m 7,7 km/h (2 Bft)
02.02.2018 08:00 -1,3 C 92 % 1007,1 hPa 0,0 l/m W-SW 0,00 h 26 W/m 8,6 km/h (2 Bft)
02.02.2018 09:00 -0,7 C 92 % 1007,4 hPa 0,0 l/m W-SW 0,67 h 179 W/m 11,8 km/h (2 Bft)
02.02.2018 10:00 1,2 C 84 % 1007,7 hPa 0,0 l/m W 1,00 h 324 W/m 17,3 km/h (3 Bft)
02.02.2018 11:00 2,5 C 76 % 1007,7 hPa 0,0 l/m W-SW 1,00 h 426 W/m 22,5 km/h (4 Bft)
02.02.2018 12:00 3,3 C 72 % 1007,2 hPa 0,0 l/m W-SW 0,83 h 453 W/m 27,0 km/h (4 Bft)
02.02.2018 13:00 2,7 C 70 % 1007,1 hPa 0,0 l/m W 0,33 h 179 W/m 19,6 km/h (3 Bft)
02.02.2018 14:00 3,0 C 70 % 1006,9 hPa 0,0 l/m W-SW 0,67 h 223 W/m 19,2 km/h (3 Bft)
02.02.2018 15:00 3,0 C 70 % 1007,0 hPa 0,0 l/m W-SW 0,00 h 101 W/m 20,0 km/h (4 Bft)
02.02.2018 16:00 2,5 C 73 % 1007,3 hPa 0,0 l/m W-SW 0,00 h 24 W/m 19,0 km/h (3 Bft)
02.02.2018 17:00 2,2 C 75 % 1007,4 hPa 0,0 l/m W-SW 0,00 h 5 W/m 11,8 km/h (2 Bft)
02.02.2018 18:00 1,9 C 76 % 1007,4 hPa 0,0 l/m W 0,00 h 0 W/m 8,3 km/h (2 Bft)
02.02.2018 19:00 1,6 C 79 % 1007,6 hPa 0,0 l/m W-SW 0,00 h 0 W/m 11,2 km/h (2 Bft)
02.02.2018 20:00 1,2 C 81 % 1007,7 hPa 0,0 l/m W-SW 0,00 h 0 W/m 10,9 km/h (2 Bft)
02.02.2018 21:00 0,7 C 83 % 1007,5 hPa 0,0 l/m W-SW 0,00 h 0 W/m 7,5 km/h (2 Bft)
02.02.2018 22:00 0,1 C 85 % 1007,7 hPa 0,0 l/m W-SW 0,00 h 0 W/m 5,5 km/h (1 Bft)
02.02.2018 23:00 -0,5 C 88 % 1007,9 hPa 0,0 l/m N 0,00 h 0 W/m 0,0 km/h (0 Bft)
03.02.2018 00:00 -0,6 C 90 % 1007,8 hPa 0,0 l/m N 0,00 h 0 W/m 0,0 km/h (0 Bft)
03.02.2018 01:00 -0,4 C 91 % 1007,4 hPa 0,0 l/m N 0,00 h 0 W/m 0,0 km/h (0 Bft)
03.02.2018 02:00 -0,4 C 92 % 1007,3 hPa 0,0 l/m W-SW 0,00 h 0 W/m 0,9 km/h (0 Bft)
03.02.2018 03:00 -0,5 C 93 % 1006,8 hPa 0,0 l/m N 0,00 h 0 W/m 0,7 km/h (0 Bft)
03.02.2018 04:00 -0,5 C 93 % 1006,8 hPa 0,0 l/m W-SW 0,00 h 0 W/m 2,8 km/h (1 Bft)
03.02.2018 05:00 -0,6 C 93 % 1006,5 hPa 0,0 l/m W-SW 0,00 h 0 W/m 7,8 km/h (2 Bft)
03.02.2018 06:00 -0,7 C 93 % 1006,4 hPa 0,0 l/m W-SW 0,00 h 0 W/m 3,7 km/h (1 Bft)
03.02.2018 07:00 -0,7 C 93 % 1006,5 hPa 0,0 l/m N 0,00 h 5 W/m 0,0 km/h (0 Bft)
03.02.2018 08:00 -0,8 C 93 % 1006,7 hPa 0,0 l/m N 0,00 h 17 W/m 0,3 km/h (0 Bft)
03.02.2018 09:00 -0,5 C 93 % 1006,7 hPa 0,0 l/m W-SW 0,00 h 51 W/m 2,7 km/h (1 Bft)
03.02.2018 10:00 0,0 C 93 % 1006,6 hPa 0,0 l/m N 0,00 h 59 W/m 0,0 km/h (0 Bft)
03.02.2018 11:00 0,6 C 93 % 1006,5 hPa 0,0 l/m W-SW 0,00 h 130 W/m 2,0 km/h (1 Bft)
03.02.2018 12:00 1,6 C 88 % 1005,8 hPa 0,0 l/m W-SW 0,50 h 242 W/m 6,4 km/h (2 Bft)
03.02.2018 13:00 2,2 C 80 % 1005,4 hPa 0,0 l/m W-SW 0,17 h 158 W/m 9,4 km/h (2 Bft)
03.02.2018 14:00 2,3 C 81 % 1005,1 hPa 0,0 l/m SW 0,00 h 150 W/m 12,6 km/h (3 Bft)
03.02.2018 15:00 2,1 C 80 % 1005,0 hPa 0,0 l/m W-SW 0,00 h 83 W/m 10,6 km/h (2 Bft)
03.02.2018 16:00 1,9 C 81 % 1005,1 hPa 0,0 l/m W-SW 0,00 h 22 W/m 6,4 km/h (2 Bft)
03.02.2018 17:00 0,8 C 88 % 1005,6 hPa 0,2 l/m W-SW 0,00 h 5 W/m 5,4 km/h (1 Bft)
03.02.2018 18:00 0,1 C 92 % 1006,1 hPa 0,8 l/m W 0,00 h 0 W/m 9,5 km/h (2 Bft)
03.02.2018 19:00 -0,1 C 94 % 1006,4 hPa 0,2 l/m W 0,00 h 0 W/m 3,6 km/h (1 Bft)
03.02.2018 20:00 -0,2 C 94 % 1006,6 hPa 0,0 l/m N 0,00 h 0 W/m 0,8 km/h (0 Bft)
03.02.2018 21:00 -0,2 C 94 % 1007,0 hPa 0,0 l/m W 0,00 h 0 W/m 3,2 km/h (1 Bft)
03.02.2018 22:00 -0,6 C 94 % 1007,5 hPa 0,0 l/m N 0,00 h 0 W/m 0,0 km/h (0 Bft)
03.02.2018 23:00 -0,9 C 94 % 1008,0 hPa 0,0 l/m N 0,00 h 0 W/m 0,0 km/h (0 Bft)
04.02.2018 00:00 -1,2 C 94 % 1008,5 hPa 0,0 l/m N 0,00 h 0 W/m 0,0 km/h (0 Bft)
04.02.2018 01:00 -1,3 C 95 % 1008,8 hPa 0,0 l/m N 0,00 h 0 W/m 0,0 km/h (0 Bft)
04.02.2018 02:00 -1,2 C 95 % 1009,2 hPa 0,0 l/m N 0,00 h 0 W/m 0,0 km/h (0 Bft)
04.02.2018 03:00 -1,3 C 95 % 1009,3 hPa 0,0 l/m N 0,00 h 0 W/m 0,0 km/h (0 Bft)
04.02.2018 04:00 -1,7 C 95 % 1009,8 hPa 0,0 l/m N 0,00 h 0 W/m 0,0 km/h (0 Bft)
04.02.2018 05:00 -1,8 C 95 % 1010,3 hPa 0,0 l/m N 0,00 h 0 W/m 0,0 km/h (0 Bft)
04.02.2018 06:00 -2,1 C 95 % 1010,8 hPa 0,0 l/m N 0,00 h 0 W/m 0,0 km/h (0 Bft)
04.02.2018 07:00 -2,3 C 95 % 1011,6 hPa 0,0 l/m N 0,00 h 6 W/m 0,0 km/h (0 Bft)
04.02.2018 08:00 -2,4 C 95 % 1012,4 hPa 0,0 l/m N 0,42 h 70 W/m 0,0 km/h (0 Bft)
04.02.2018 09:00 -1,4 C 96 % 1013,2 hPa 0,0 l/m N 0,33 h 122 W/m 0,0 km/h (0 Bft)
04.02.2018 10:00 -0,5 C 95 % 1013,9 hPa 0,0 l/m N 0,75 h 232 W/m 0,0 km/h (0 Bft)
04.02.2018 11:00 0,8 C 90 % 1014,4 hPa 0,0 l/m W 1,00 h 400 W/m 2,1 km/h (1 Bft)
04.02.2018 12:00 2,0 C 83 % 1014,4 hPa 0,0 l/m W 0,75 h 375 W/m 2,9 km/h (1 Bft)
04.02.2018 13:00 2,0 C 79 % 1014,4 hPa 0,0 l/m W 0,08 h 199 W/m 2,5 km/h (1 Bft)
04.02.2018 14:00 2,3 C 76 % 1014,6 hPa 0,0 l/m N 0,00 h 135 W/m 0,5 km/h (0 Bft)
04.02.2018 15:00 2,3 C 72 % 1014,8 hPa 0,0 l/m N 0,00 h 75 W/m 0,5 km/h (0 Bft)
04.02.2018 16:00 2,3 C 71 % 1015,2 hPa 0,0 l/m N 0,00 h 46 W/m 0,0 km/h (0 Bft)
04.02.2018 17:00 3,3 C 73 % 1015,6 hPa 0,0 l/m N 0,17 h 11 W/m 0,0 km/h (0 Bft)
04.02.2018 18:00 1,6 C 75 % 1016,2 hPa 0,0 l/m N 0,00 h 0 W/m 0,0 km/h (0 Bft)
04.02.2018 19:00 0,2 C 82 % 1016,6 hPa 0,0 l/m N 0,00 h 0 W/m 0,0 km/h (0 Bft)
04.02.2018 20:00 -0,6 C 83 % 1016,8 hPa 0,0 l/m N 0,00 h 0 W/m 0,0 km/h (0 Bft)
04.02.2018 21:00 -1,5 C 87 % 1017,2 hPa 0,0 l/m N 0,00 h 0 W/m 0,3 km/h (0 Bft)
04.02.2018 22:00 -2,0 C 88 % 1017,4 hPa 0,0 l/m N 0,00 h 0 W/m 0,0 km/h (0 Bft)
04.02.2018 23:00 -2,4 C 89 % 1017,9 hPa 0,0 l/m W 0,00 h 0 W/m 1,6 km/h (1 Bft)
Min-Datum _ 04.02.18 02.02.18 01.02.18 - - - - 29.01.18
_ Min-Zeit 08:25 13:10 07:10 - - - - 00:00
Minimum _ -2,6 C 69 % 1001,3 hPa - - - - 0,0 km/h (0 Bft)
Max-Datum _ 31.01.18 01.02.18 29.01.18 01.02.18 - 29.01.18 31.01.18 01.02.18
_ Max-Zeit 12:45 03:15 00:05 05:25 - 12:50 13:10 00:50
Maximum _ 8,7 C 100 % 1034,5 hPa 2,4 l/m - 0,08 h 619 W/m 35,4 km/h
W-SW (5 Bft)
Durchschnitt _ 2,9 C 89 % 1014,8 hPa #13,2 l/m W-SW #15:40 h 122 W/m 9,0 km/h (2 Bft)